Hourly Weather Barra

Today, 16 January, Saturday

Time Temperature Precipitation Wind Pressure Humidity
00:00 +24°C° 0 mm 2 mps 744 mmHg 85%
01:00 +23°C° 0 mm 2 mps 744 mmHg 87%
02:00 +23°C° 0 mm 2 mps 743 mmHg 88%
03:00 +23°C° 0 mm 2 mps 743 mmHg 89%
04:00 +23°C° 0 mm 2 mps 743 mmHg 89%
05:00 +23°C° 0 mm 2 mps 743 mmHg 89%
06:00 +24°C° 0 mm 2 mps 744 mmHg 88%
07:00 +24°C° 0 mm 2 mps 744 mmHg 87%
08:00 +26°C° 0 mm 2 mps 744 mmHg 79%
09:00 +28°C° 0 mm 2 mps 744 mmHg 70%
10:00 +29°C° 0 mm 2 mps 744 mmHg 63%
11:00 +30°C° 0 mm 2 mps 743 mmHg 62%
12:00 +30°C° 0 mm 3 mps 743 mmHg 61%
13:00 +31°C° 0 mm 3 mps 743 mmHg 61%
14:00 +30°C° 0 mm 3 mps 743 mmHg 63%
15:00 +30°C° 0 mm 3 mps 743 mmHg 66%
16:00 +30°C° 0 mm 3 mps 743 mmHg 70%
17:00 +29°C° 0 mm 3 mps 743 mmHg 76%
18:00 +28°C° 0 mm 3 mps 744 mmHg 83%
19:00 +27°C° 0 mm 3 mps 744 mmHg 89%
20:00 +26°C° 0 mm 3 mps 744 mmHg 90%
21:00 +26°C° 0 mm 3 mps 745 mmHg 91%
22:00 +25°C° 0 mm 2 mps 745 mmHg 91%
23:00 +25°C° 0 mm 2 mps 745 mmHg 92%

Tomorrow, 17 January, Sunday

Time Temperature Precipitation Wind Pressure Humidity
00:00 +24°C° 0 mm 2 mps 745 mmHg 92%
01:00 +24°C° 0 mm 2 mps 744 mmHg 93%
02:00 +24°C° 0 mm 2 mps 744 mmHg 93%
03:00 +24°C° 0 mm 2 mps 744 mmHg 93%
04:00 +23°C° 0 mm 2 mps 743 mmHg 93%
05:00 +24°C° 0 mm 2 mps 744 mmHg 92%
06:00 +24°C° 0 mm 2 mps 744 mmHg 90%
07:00 +25°C° 0 mm 2 mps 745 mmHg 88%
08:00 +27°C° 0.1 mm 2 mps 745 mmHg 82%
09:00 +28°C° 0.1 mm 3 mps 745 mmHg 76%
10:00 +30°C° 0.1 mm 3 mps 745 mmHg 70%
11:00 +30°C° 0.4 mm 3 mps 745 mmHg 72%
12:00 +30°C° 0.4 mm 4 mps 745 mmHg 74%
13:00 +30°C° 0.4 mm 4 mps 744 mmHg 76%
14:00 +29°C° 1 mm 3 mps 744 mmHg 81%
15:00 +27°C° 1 mm 3 mps 744 mmHg 87%
16:00 +26°C° 1 mm 2 mps 744 mmHg 93%
17:00 +26°C° 0.5 mm 2 mps 744 mmHg 93%
18:00 +26°C° 0.5 mm 2 mps 745 mmHg 94%
19:00 +25°C° 0.5 mm 2 mps 745 mmHg 94%
20:00 +25°C° 0.7 mm 2 mps 745 mmHg 94%
21:00 +25°C° 0.7 mm 2 mps 746 mmHg 95%
22:00 +25°C° 0.7 mm 2 mps 746 mmHg 95%
23:00 +25°C° 1 mm 2 mps 745 mmHg 95%

Day after tomorrow, 18 January, Monday

Time Temperature Precipitation Wind Pressure Humidity
00:00 +25°C° 1 mm 2 mps 745 mmHg 95%
01:00 +25°C° 1 mm 2 mps 745 mmHg 95%
02:00 +25°C° 1 mm 2 mps 744 mmHg 95%
03:00 +25°C° 1 mm 2 mps 744 mmHg 95%
04:00 +25°C° 1 mm 2 mps 744 mmHg 95%
05:00 +26°C° 1.4 mm 2 mps 744 mmHg 95%
06:00 +26°C° 1.4 mm 2 mps 745 mmHg 95%
07:00 +26°C° 1.4 mm 2 mps 745 mmHg 95%
08:00 +27°C° 1.1 mm 2 mps 745 mmHg 93%
09:00 +28°C° 1.1 mm 3 mps 746 mmHg 91%
10:00 +29°C° 1.1 mm 3 mps 746 mmHg 89%
11:00 +29°C° 1.6 mm 3 mps 745 mmHg 87%
12:00 +29°C° 1.6 mm 3 mps 745 mmHg 86%
13:00 +30°C° 1.6 mm 3 mps 745 mmHg 84%
14:00 +30°C° 1.3 mm 3 mps 744 mmHg 85%
15:00 +29°C° 1.3 mm 2 mps 744 mmHg 87%
16:00 +29°C° 1.3 mm 2 mps 743 mmHg 88%
17:00 +28°C° 0.4 mm 2 mps 744 mmHg 89%
18:00 +28°C° 0.4 mm 1 mps 744 mmHg 91%
19:00 +27°C° 0.4 mm 1 mps 745 mmHg 92%
20:00 +27°C° 0.2 mm 1 mps 745 mmHg 92%
21:00 +25°C° 0.2 mm 0 mps 746 mmHg 93%
22:00 +25°C° 0.2 mm 0 mps 746 mmHg 93%
23:00 +27°C° 0.4 mm 1 mps 746 mmHg 93%

19 January, Tuesday

Time Temperature Precipitation Wind Pressure Humidity
00:00 +27°C° 0.4 mm 1 mps 746 mmHg 93%
01:00 +26°C° 0.4 mm 1 mps 745 mmHg 94%
02:00 +26°C° 0.1 mm 1 mps 745 mmHg 94%
03:00 +26°C° 0.1 mm 1 mps 745 mmHg 95%
04:00 +26°C° 0.1 mm 1 mps 745 mmHg 95%
05:00 +26°C° 0.2 mm 1 mps 745 mmHg 95%
06:00 +26°C° 0.2 mm 1 mps 746 mmHg 95%
07:00 +26°C° 0.2 mm 1 mps 746 mmHg 94%
08:00 +28°C° 0 mm 1 mps 746 mmHg 88%
09:00 +29°C° 0 mm 1 mps 747 mmHg 82%
10:00 +31°C° 0 mm 1 mps 747 mmHg 75%
11:00 +31°C° 0.4 mm 2 mps 747 mmHg 76%
12:00 +31°C° 0.4 mm 2 mps 746 mmHg 76%
13:00 +31°C° 0.4 mm 2 mps 746 mmHg 77%
14:00 +31°C° 0.7 mm 2 mps 745 mmHg 78%
15:00 +31°C° 0.7 mm 2 mps 745 mmHg 80%
16:00 +30°C° 0.7 mm 2 mps 745 mmHg 81%
17:00 +29°C° 0.7 mm 2 mps 745 mmHg 84%
18:00 +28°C° 0.7 mm 1 mps 746 mmHg 88%
19:00 +28°C° 0.7 mm 1 mps 746 mmHg 91%
20:00 +27°C° 1.7 mm 1 mps 747 mmHg 92%
21:00 +27°C° 1.7 mm 1 mps 747 mmHg 92%
22:00 +27°C° 1.7 mm 1 mps 748 mmHg 93%
23:00 +27°C° 0.6 mm 2 mps 747 mmHg 94%

20 January, Wednesday

Time Temperature Precipitation Wind Pressure Humidity
00:00 +26°C° 0.6 mm 2 mps 747 mmHg 95%
01:00 +26°C° 0.6 mm 2 mps 747 mmHg 95%
02:00 +26°C° 0.4 mm 2 mps 746 mmHg 95%
03:00 +26°C° 0.4 mm 2 mps 746 mmHg 95%
04:00 +26°C° 0.4 mm 2 mps 746 mmHg 95%
05:00 +26°C° 0 mm 2 mps 746 mmHg 95%
06:00 +26°C° 0 mm 2 mps 747 mmHg 94%
07:00 +26°C° 0 mm 2 mps 747 mmHg 94%
08:00 +27°C° 0.5 mm 2 mps 747 mmHg 90%
09:00 +29°C° 0.5 mm 2 mps 748 mmHg 86%
10:00 +30°C° 0.5 mm 3 mps 748 mmHg 82%
11:00 +30°C° 2 mm 3 mps 747 mmHg 84%
12:00 +29°C° 2 mm 4 mps 747 mmHg 86%
13:00 +29°C° 2 mm 5 mps 747 mmHg 88%
14:00 +29°C° 1.4 mm 5 mps 746 mmHg 89%
15:00 +29°C° 1.4 mm 5 mps 746 mmHg 89%
16:00 +29°C° 1.4 mm 5 mps 746 mmHg 89%
17:00 +28°C° 0.6 mm 5 mps 746 mmHg 90%
18:00 +27°C° 0.6 mm 4 mps 746 mmHg 92%
19:00 +27°C° 0.6 mm 4 mps 747 mmHg 93%
20:00 +27°C° 0.4 mm 4 mps 747 mmHg 93%
21:00 +26°C° 0.4 mm 4 mps 748 mmHg 93%
22:00 +26°C° 0.4 mm 4 mps 748 mmHg 93%
23:00 +26°C° 0.4 mm 4 mps 748 mmHg 93%

21 January, Thursday

Time Temperature Precipitation Wind Pressure Humidity
00:00 +26°C° 0.4 mm 4 mps 747 mmHg 93%
01:00 +26°C° 0.4 mm 4 mps 747 mmHg 93%
02:00 +26°C° 0.2 mm 3 mps 747 mmHg 93%
03:00 +25°C° 0.2 mm 3 mps 746 mmHg 93%
04:00 +25°C° 0.2 mm 3 mps 746 mmHg 93%
05:00 +26°C° 0.3 mm 3 mps 746 mmHg 93%
06:00 +26°C° 0.3 mm 4 mps 747 mmHg 93%
07:00 +26°C° 0.3 mm 4 mps 747 mmHg 93%
08:00 +27°C° 1 mm 4 mps 747 mmHg 91%
09:00 +27°C° 1 mm 5 mps 748 mmHg 90%
10:00 +28°C° 1 mm 5 mps 748 mmHg 88%
11:00 +28°C° 1.1 mm 5 mps 747 mmHg 88%
12:00 +28°C° 1.1 mm 5 mps 747 mmHg 87%
13:00 +28°C° 1.1 mm 5 mps 746 mmHg 87%
14:00 +28°C° 1.1 mm 5 mps 746 mmHg 88%
15:00 +28°C° 1.1 mm 4 mps 745 mmHg 88%
16:00 +28°C° 1.1 mm 4 mps 745 mmHg 89%
17:00 +27°C° 1 mm 4 mps 745 mmHg 90%
18:00 +26°C° 1 mm 4 mps 745 mmHg 92%
19:00 +26°C° 1 mm 3 mps 746 mmHg 93%
20:00 +25°C° 1.4 mm 3 mps 746 mmHg 93%
21:00 +25°C° 1.4 mm 4 mps 747 mmHg 94%
22:00 +25°C° 1.4 mm 4 mps 747 mmHg 94%
23:00 +25°C° 1.4 mm 4 mps 747 mmHg 94%
Show more